Location: Ajisawe
(8.4333°N, 4.3833°E)
Time: 22:47:41
(UTC+00:00)

Vanguard 1 Rocket - Pass Details

Date: 26 April 2021
Orbit: 652 x 4224 km, 34.3° (Epoch: 10 May)

Event Time Altitude Azimuth Distance (km) Brightness Sun altitude
Exits shadow 02:31:40 10° 190° (S) 7,241 11.7 -42.1°
Reaches altitude 10° 02:32:00 10° 189° (S) 7,233 11.7 -42.1°
Maximum altitude 02:42:28 13° 164° (SSE) 7,116 11.8 -39.7°
Drops below altitude 10° 02:52:54 10° 140° (SE) 7,273 12.1 -37.4°
Sets 03:03:57 0° 116° (ESE) 7,763 12.6 -34.9°
